Regional Weather Roundup
Issued by NWS

Home | Current Version | Previous Version | Graphics & Text | Print | Product List | Glossary On
Versions: 1 2 3 4 5 6 7 8 9 10 11 12 13 14 15 16 17 18 19 20 21 22 23 24 25 26 27 28 29 30 31 32 33 34 35 36 37 38 39 40 41 42 43 44 45 46 47 48 49 50
000
ASUS43 KFSD 011602
RWRSD

WEATHER ROUNDUP FOR SOUTH DAKOTA
NATIONAL WEATHER SERVICE SIOUX FALLS SD
1100 AM CDT SAT AUG 01 2015

NOTE: "FAIR" INDICATES FEW OR NO CLOUDS BELOW 12,000 FEET WITH NO
SIGNIFICANT WEATHER AND/OR OBSTRUCTIONS TO VISIBILITY.


SDZ001>005-009-010-012>017-011700-
NORTHWEST AND NORTH CENTRAL SOUTH DAKOTA

CITY           SKY/WX    TMP DP  RH WIND       PRES   REMARKS
BUFFALO          N/A     89  37  16 NW14      29.91F
FAITH            N/A     85  55  35 W12G22    29.94F
MOBRIDGE       SUNNY     81  67  62 S8        29.88F
$$

SDZ012>016-024>037-041>051-057-063-072>074-011700-
SOUTHWEST AND SOUTH CENTRAL SOUTH DAKOTA

CITY           SKY/WX    TMP DP  RH WIND       PRES   REMARKS
RAPID CTY ARPT SUNNY     81  58  45 S8        30.03S
PIERRE         SUNNY     83  59  44 S22G30    29.91F
CUSTER         SUNNY     81  52  36 W5        30.17F
ELLSWORTH AFB  SUNNY     82  56  39 VRB1      30.02S
PHILIP         SUNNY     82  64  54 SW14      29.95R
PINE RIDGE     SUNNY     78  59  51 SE17      30.05F
WINNER         FAIR      71  57  61 S23G36    29.99R
$$

SDZ004>011-016>023-039-040-011700-
NORTHEAST SOUTH DAKOTA

CITY           SKY/WX    TMP DP  RH WIND       PRES   REMARKS
ABERDEEN       PTSUNNY   80  65  59 S8        29.91F
WATERTOWN      SUNNY     81  64  56 S8        29.96F
BROOKINGS      MOSUNNY   79  70  73 S10       30.00F
SISSETON         N/A     76  61  59 SE10      29.93F
$$

SDZ017-020-022-023-036>040-048>070-011700-
SOUTHEAST SOUTH DAKOTA

CITY           SKY/WX    TMP DP  RH WIND       PRES   REMARKS
SIOUX FALLS    CLOUDY    79  67  66 SW9       30.01S
HURON          MOSUNNY   78  67  68 SW16      29.93F
MITCHELL       PTSUNNY   78  59  51 S9G18     29.96F
YANKTON        CLOUDY    75  63  64 SW16      30.00F
$$

ABBREVIATIONS USED IN REMARKS
   TC - TEMPERATURE IN CELSIUS
  WCI - WIND CHILL INDEX
   HX - HEAT INDEX
  VSB - VISIBILITY



USA.gov is the U.S. government's official web portal to all federal, state and local government web resources and services.